EAL9717 KHSV-KMCO

Flight info

Callsign EAL9717
Flight time 2h 5m
Altitude 39000
Route TDG LGC ZJAYX GRNCH5
Aircraft B772/H-SDE3FGHIJ1J3J7M3P2RWXYZ/SB2D1

Departure

Time 2026-04-24 16:49
Airport Huntsville International Airport (KHSV)

Arrival

Time 2026-04-24 18:54
Airport Orlando International Airport (KMCO)
Time Latitude Longitude Altitude Speed Heading
2026-04-24 16:27 34.64692 -86.77715 629 ft 0 kts 180°
2026-04-24 16:43 34.64690 -86.77715 629 ft 1 kts 180°
2026-04-24 16:44 34.64666 -86.77716 629 ft 4 kts 186°
2026-04-24 16:44 34.64627 -86.77724 629 ft 6 kts 192°
2026-04-24 16:44 34.64593 -86.77752 630 ft 6 kts 243°
2026-04-24 16:44 34.64585 -86.77817 630 ft 8 kts 271°
2026-04-24 16:45 34.64585 -86.77889 632 ft 8 kts 270°
2026-04-24 16:45 34.64600 -86.77952 633 ft 7 kts 315°
2026-04-24 16:45 34.64658 -86.77969 633 ft 10 kts 358°
2026-04-24 16:45 34.64737 -86.77971 633 ft 12 kts 359°
2026-04-24 16:46 34.64826 -86.77969 633 ft 13 kts
2026-04-24 16:46 34.64922 -86.77962 633 ft 14 kts
2026-04-24 16:46 34.65024 -86.77961 634 ft 14 kts
2026-04-24 16:46 34.65131 -86.77960 634 ft 15 kts
2026-04-24 16:47 34.65224 -86.77973 634 ft 11 kts 317°
2026-04-24 16:47 34.65261 -86.78056 635 ft 11 kts 281°
2026-04-24 16:47 34.65266 -86.78153 636 ft 11 kts 271°
2026-04-24 16:47 34.65233 -86.78214 636 ft 10 kts 183°
2026-04-24 16:48 34.65131 -86.78213 636 ft 26 kts 180°
2026-04-24 16:48 34.64756 -86.78221 636 ft 86 kts 181°
2026-04-24 16:48 34.63937 -86.78239 633 ft 144 kts 181°
2026-04-24 16:48 34.62821 -86.78267 871 ft 165 kts 182°
2026-04-24 16:49 34.61688 -86.78194 1438 ft 168 kts 163°
2026-04-24 16:49 34.60700 -86.77484 1971 ft 168 kts 147°
2026-04-24 16:49 34.59712 -86.76599 2085 ft 183 kts 146°
2026-04-24 16:49 34.58643 -86.75638 2217 ft 202 kts 146°
2026-04-24 16:50 34.57874 -86.74937 2391 ft 212 kts 145°
2026-04-24 16:50 34.56228 -86.73438 2810 ft 231 kts 146°
2026-04-24 16:50 34.54883 -86.72225 3054 ft 250 kts 146°
2026-04-24 16:50 34.53458 -86.70944 3482 ft 261 kts 146°
2026-04-24 16:51 34.51931 -86.69754 4150 ft 261 kts 151°
2026-04-24 16:51 34.50367 -86.68649 4768 ft 264 kts 152°
2026-04-24 16:51 34.48788 -86.67541 5378 ft 266 kts 152°
2026-04-24 16:51 34.47178 -86.66412 5983 ft 268 kts 152°
2026-04-24 16:52 34.45549 -86.65269 6549 ft 271 kts 152°
2026-04-24 16:52 34.43918 -86.64126 7110 ft 274 kts 152°
2026-04-24 16:52 34.42264 -86.62968 7615 ft 278 kts 152°
2026-04-24 16:52 34.40590 -86.61796 8126 ft 282 kts 152°
2026-04-24 16:53 34.38877 -86.60596 8619 ft 285 kts 152°
2026-04-24 16:53 34.37153 -86.59390 9109 ft 288 kts 152°
2026-04-24 16:53 34.35405 -86.58168 9571 ft 292 kts 152°
2026-04-24 16:53 34.33642 -86.56936 10055 ft 294 kts 152°
2026-04-24 16:54 34.31834 -86.55674 10240 ft 310 kts 152°
2026-04-24 16:54 34.29916 -86.54337 10354 ft 327 kts 151°
2026-04-24 16:54 34.27885 -86.52921 10490 ft 345 kts 151°
2026-04-24 16:54 34.25758 -86.51439 10631 ft 362 kts 151°
2026-04-24 16:55 34.23508 -86.49872 10801 ft 378 kts 151°
2026-04-24 16:55 34.21218 -86.48277 11247 ft 385 kts 151°
2026-04-24 16:55 34.18875 -86.46645 11878 ft 389 kts 150°
2026-04-24 16:55 34.16539 -86.45019 12509 ft 392 kts 150°
2026-04-24 16:56 34.14145 -86.43354 13160 ft 397 kts 150°
2026-04-24 16:56 34.11733 -86.41678 13790 ft 404 kts 150°
2026-04-24 16:56 34.09308 -86.39992 14523 ft 408 kts 150°
2026-04-24 16:56 34.06851 -86.38287 15261 ft 413 kts 150°
2026-04-24 16:57 34.04351 -86.36552 16008 ft 418 kts 150°
2026-04-24 16:57 34.01805 -86.34788 16703 ft 425 kts 151°
2026-04-24 16:57 33.99201 -86.32983 17394 ft 432 kts 151°
2026-04-24 16:57 33.96572 -86.31163 18132 ft 437 kts 151°
2026-04-24 16:58 33.93932 -86.29336 18977 ft 439 kts 151°
2026-04-24 16:58 33.91261 -86.27489 19814 ft 442 kts 151°
2026-04-24 16:58 33.88579 -86.25636 20540 ft 447 kts 151°
2026-04-24 16:58 33.85856 -86.23756 21210 ft 453 kts 151°
2026-04-24 16:59 33.83128 -86.21874 21911 ft 457 kts 151°
2026-04-24 16:59 33.80339 -86.19952 22589 ft 462 kts 151°
2026-04-24 16:59 33.74723 -86.16084 23991 ft 469 kts 151°
2026-04-24 17:00 33.71903 -86.14145 24626 ft 474 kts 151°
2026-04-24 17:00 33.66132 -86.10180 25827 ft 483 kts 151°
2026-04-24 17:00 33.63203 -86.08170 26389 ft 488 kts 151°
2026-04-24 17:01 33.57550 -86.03550 27420 ft 497 kts 137°
2026-04-24 17:01 33.55171 -86.00533 27914 ft 501 kts 128°
2026-04-24 17:02 33.50961 -85.93832 28966 ft 507 kts 126°
2026-04-24 17:02 33.48858 -85.90440 29538 ft 508 kts 126°
2026-04-24 17:02 33.46772 -85.87082 30260 ft 506 kts 126°
2026-04-24 17:02 33.44685 -85.83730 30947 ft 505 kts 126°
2026-04-24 17:03 33.40491 -85.77010 32366 ft 500 kts 125°
2026-04-24 17:03 33.38406 -85.73679 32988 ft 498 kts 125°
2026-04-24 17:03 33.36340 -85.70381 33596 ft 497 kts 125°
2026-04-24 17:04 33.34268 -85.67078 34240 ft 495 kts 125°
2026-04-24 17:04 33.30139 -85.60506 35426 ft 492 kts 125°
2026-04-24 17:04 33.28077 -85.57229 35985 ft 491 kts 125°
2026-04-24 17:05 33.25977 -85.53893 36493 ft 490 kts 125°
2026-04-24 17:05 33.23912 -85.50618 36919 ft 490 kts 125°
2026-04-24 17:05 33.19765 -85.44051 37729 ft 490 kts 125°
2026-04-24 17:06 33.17696 -85.40778 38101 ft 489 kts 125°
2026-04-24 17:06 33.13580 -85.34277 38754 ft 489 kts 126°
2026-04-24 17:06 33.11501 -85.30997 38982 ft 490 kts 126°
2026-04-24 17:07 33.07396 -85.24530 38988 ft 492 kts 126°
2026-04-24 17:08 32.98797 -85.11935 39000 ft 490 kts 129°
2026-04-24 17:08 32.94342 -85.05743 38999 ft 491 kts 129°
2026-04-24 17:09 32.85472 -84.93390 39000 ft 492 kts 129°
2026-04-24 17:10 32.76589 -84.81033 38998 ft 492 kts 129°
2026-04-24 17:12 32.58844 -84.56452 38977 ft 491 kts 129°
2026-04-24 18:54 28.43249 -81.33093 104 ft 0 kts